Regional Weather Roundup
Issued by NWS Portland, ME

Home | Current Version | Previous Version | Text Only | Print | Product List | Glossary On
Versions: 1 2 3 4 5 6 7 8 9 10 11 12 13 14 15 16 17 18 19 20 21 22 23 24 25 26 27 28 29 30 31 32 33 34 35 36 37 38 39 40 41 42 43 44 45 46 47 48 49 50
000
ASUS41 KGYX 290210
RWRGYX
WEATHER ROUNDUP FOR MAINE AND NEW HAMPSHIRE
NATIONAL WEATHER SERVICE GRAY ME
1000 PM EDT TUE JUL 28 2015

MEZ002-005-006-010-012-015-018-020-021-024-026-027-029-290300-
MAINE

CITY           SKY/WX    TMP DP  RH WIND       PRES   REMARKS
PORTLAND       MOCLDY    71  65  81 SW6       29.95R
SANFORD        MOCLDY    70  64  83 W6        29.96S
BAR HARBOR     CLOUDY    63  63 100 S3        29.94S
WISCASSET      PTCLDY    66  63  90 CALM      29.96R
ROCKLAND       PTCLDY    63  61  94 SW6       29.94S
FRYEBURG       MOCLDY    68  67  96 CALM      29.97R
LEWISTONAUBURN PTCLDY    70  64  83 CALM      29.95S
AUGUSTA        CLEAR     70  66  87 S3        29.94S
BANGOR         PTCLDY    65  63  93 S5        29.94R
GREENVILLE       N/A     65  58  78 N5        29.95S
MILLINOCKET    PTCLDY    68  60  75 NW3       29.93R
HOULTON        CLEAR     62  59  90 S3        29.89R
PRESQUE ISLE   CLEAR     63  55  77 SW3       29.90S
FRENCHVILLE    CLEAR     65  53  65 CALM      29.92R
CARIBOU        CLEAR     67  53  61 NW7       29.90R
$$

NHZ002-005-008-009-011-012-014-290300-
NEW HAMPSHIRE

CITY           SKY/WX    TMP DP  RH WIND       PRES   REMARKS
PORTSMOUTH     MOCLDY    70  67  89 W2        29.93F
ROCHESTER      MOCLDY    72  64  76 CALM      29.96R
MANCHESTER     MOCLDY    78  67  68 SE7       29.95R
CONCORD        MOCLDY    71  65  81 S3        29.96R
LACONIA        MOCLDY    72  64  78 W3        29.96S
PLYMOUTH       FAIR      68  68 100 CALM      29.97S
BERLIN         PTCLDY    63  60  90 CALM      30.00R
WHITEFIELD     MOCLDY    67  63  87 CALM      30.00R
JAFFREY        PTCLDY    68  65  90 CALM      30.01R
KEENE          CLEAR     70  63  78 CALM      29.99R
LEBANON        CLEAR     69  64  84 CALM      29.98R
MT WASHINGTON  MOCLDY    54  48  82 NW30        N/A
$$

VTZ005-007-008-290300-
VERMONT

CITY           SKY/WX    TMP DP  RH WIND       PRES   REMARKS
ST JOHNSBURY     N/A     72  66  81 MISG      29.97R
MONTPELIER     CLEAR     69  63  81 CALM      30.04R
BURLINGTON     CLEAR     76  68  76 CALM      29.95R
$$

MAZ007-012-024-CTZ003-RIZ002-NYZ038-NYZ072-290300-
SOUTHERN NEW ENGLAND AND NY

CITY           SKY/WX    TMP DP  RH WIND       PRES   REMARKS
BOSTON         PTCLDY    76  69  79 SW5       29.96S
WORCESTER      CLEAR     72  66  81 CALM      30.01R
NANTUCKET      FOG       72  71  97 SW9       29.98R VSB 1/4
PROVIDENCE     PTCLDY    72  68  87 E5        29.97S
HARTFORD       MOCLDY    77  68  73 CALM      29.96R
ALBANY         MOCLDY    78  67  68 CALM      29.97R
NEW YORK CITY  PTCLDY    85  65  51 S8        29.97R
$$

ANZ081-ANZ082-ANZ150-NHZ014-MEZ023>029-290300-
COASTAL MARINE OBSERVATIONS

STATION/POSITION TIME  TEMP    WIND        PRES    WAVE
                       AIR SEA DIR/SP/G            HT/PER
                 (UTC) (F)     (DEG/KT/KT) (MB)    (FT/S)
MOUNT DESERT ROC 0200   61     210/ 12/ 12 1014.1F
MATINICUS ROCK   0100   60     190/ 14/ 15 1014.0R
ISLE OF SHOALS   0100   70     180/ 10/ 10 1013.9R
JEFFREYS LEDGE   0103      63                N/A     2/ 8
CASHES LEDGE BUO 0150   66                 1013.8S   2/10
GEORGES BANK BUO 0050   67 69  310/  4/  6 1014.7    3/ 9
$$

.............KEY..............
   WCI - WIND CHILL
   TC  - TEMPERATURE IN CELSIUS
   VSB - VISIBILITY IN MILES
   HX  - HEAT INDEX
   FAIR- INDICATES FEW OR NO CLOUDS BELOW 12,000 FT, WITH NO
         SIGNIFICANT WEATHER AND/OR OBSTRUCTIONS TO VISIBILITY.





USA.gov is the U.S. government's official web portal to all federal, state and local government web resources and services.